Location: Pittsburgh
(40.4410°N, 79.9960°W)
Time: 21:19:45
(UTC-05:00)

ACS3 Solar Sail - Visible Passes

Search period start: 05 March 2026 00:00
Search period end: 15 March 2026 01:00
Orbit: 889 x 972 km, 97.2° (Epoch: 5 March)

Date Brightness Start Highest point End Pass type
(mag) Time Alt. Az. Time Alt. Az. Time Alt. Az.
10 Mar 4.3 03:31:18 10° N 03:31:28 11° N 03:31:28 11° N visible
11 Mar 4.2 03:42:46 10° N 03:43:05 12° N 03:43:05 12° N visible
12 Mar 4.2 03:54:14 10° N 03:54:38 12° N 03:54:38 12° N visible
13 Mar 4.1 04:05:42 10° N 04:06:07 12° NNW 04:06:07 12° NNW visible
14 Mar 4.1 04:17:11 10° NNW 04:17:33 11° NNW 04:17:33 11° NNW visible
